Time,TemperatureF,DewpointF,PressureIn,WindDirection,WindDirectionDegrees,WindSpeedMPH,WindSpeedGustMPH,Humidity,HourlyPrecipIn,Conditions,Clouds,dailyrainin,SoftwareType,DateUTC
2013-03-29 00:11:00,38.3,27.0,30.30,SW,236,0.0,0.0,63,0.00,,,0.01,weatherlink.com 1.10,2013-03-29 04:11:00,
2013-03-29 00:41:00,37.3,26.0,30.30,SW,236,0.0,0.0,65,0.00,,,0.01,weatherlink.com 1.10,2013-03-29 04:41:00,
2013-03-29 02:41:00,32.1,26.0,30.30,SW,236,0.0,0.0,78,0.00,,,0.00,weatherlink.com 1.10,2013-03-29 06:41:00,
2013-03-29 02:56:00,31.8,26.0,30.30,SW,236,0.0,0.0,78,0.00,,,0.00,weatherlink.com 1.10,2013-03-29 06:56:00,
2013-03-29 03:11:00,31.4,26.0,30.30,SW,236,0.0,0.0,79,0.00,,,0.00,weatherlink.com 1.10,2013-03-29 07:11:00,
2013-03-29 03:26:00,31.0,26.0,30.30,SW,236,0.0,0.0,81,0.00,,,0.00,weatherlink.com 1.10,2013-03-29 07:26:00,
2013-03-29 03:41:00,30.6,25.0,30.30,SW,236,0.0,0.0,81,0.00,,,0.00,weatherlink.com 1.10,2013-03-29 07:41:00,
2013-03-29 03:56:00,30.4,26.0,30.30,SW,236,0.0,0.0,83,0.00,,,0.00,weatherlink.com 1.10,2013-03-29 07:56:00,
2013-03-29 04:11:00,30.3,26.0,30.30,SW,236,0.0,0.0,85,0.00,,,0.00,weatherlink.com 1.10,2013-03-29 08:11:00,
2013-03-29 04:26:00,30.4,26.0,30.30,SW,236,0.0,0.0,84,0.00,,,0.00,weatherlink.com 1.10,2013-03-29 08:26:00,
2013-03-29 04:41:00,30.2,26.0,30.30,SW,236,0.0,0.0,83,0.00,,,0.00,weatherlink.com 1.10,2013-03-29 08:41:00,
2013-03-29 04:56:00,30.1,26.0,30.31,SW,236,0.0,0.0,84,0.00,,,0.00,weatherlink.com 1.10,2013-03-29 08:56:00,
2013-03-29 05:11:00,29.8,26.0,30.31,SW,236,0.0,0.0,85,0.00,,,0.00,weatherlink.com 1.10,2013-03-29 09:11:00,
2013-03-29 05:26:00,29.6,25.0,30.30,SW,236,0.0,0.0,84,0.00,,,0.00,weatherlink.com 1.10,2013-03-29 09:26:00,
2013-03-29 05:41:00,29.4,26.0,30.31,SW,236,0.0,0.0,85,0.00,,,0.00,weatherlink.com 1.10,2013-03-29 09:41:00,
2013-03-29 05:56:00,29.3,26.0,30.31,SW,236,0.0,0.0,86,0.00,,,0.00,weatherlink.com 1.10,2013-03-29 09:56:00,
2013-03-29 06:11:00,29.2,26.0,30.32,SW,236,0.0,0.0,87,0.00,,,0.00,weatherlink.com 1.10,2013-03-29 10:11:00,
2013-03-29 06:41:00,29.3,26.0,30.32,SW,236,0.0,0.0,87,0.00,,,0.00,weatherlink.com 1.10,2013-03-29 10:41:00,
2013-03-29 06:56:00,29.1,25.0,30.33,SW,236,0.0,0.0,86,0.00,,,0.00,weatherlink.com 1.10,2013-03-29 10:56:00,
2013-03-29 07:11:00,29.0,26.0,30.33,SW,236,0.0,0.0,87,0.00,,,0.00,weatherlink.com 1.10,2013-03-29 11:11:00,
2013-03-29 07:26:00,28.9,26.0,30.34,SW,236,0.0,0.0,87,0.00,,,0.00,weatherlink.com 1.10,2013-03-29 11:26:00,
2013-03-29 07:42:00,29.0,26.0,30.34,SW,236,0.0,0.0,87,0.00,,,0.00,weatherlink.com 1.10,2013-03-29 11:42:00,
2013-03-29 07:56:00,29.3,26.0,30.34,SW,236,0.0,0.0,88,0.00,,,0.00,weatherlink.com 1.10,2013-03-29 11:56:00,
2013-03-29 08:11:00,30.1,27.0,30.34,SW,236,0.0,0.0,88,0.00,,,0.00,weatherlink.com 1.10,2013-03-29 12:11:00,
2013-03-29 08:26:00,31.4,28.0,30.34,SW,236,0.0,0.0,88,0.00,,,0.00,weatherlink.com 1.10,2013-03-29 12:26:00,
2013-03-29 08:41:00,33.4,31.0,30.35,SW,236,0.0,0.0,89,0.00,,,0.00,weatherlink.com 1.10,2013-03-29 12:41:00,
2013-03-29 08:57:00,37.5,32.0,30.34,SW,236,0.0,1.0,81,0.00,,,0.00,weatherlink.com 1.10,2013-03-29 12:57:00,
2013-03-29 09:12:00,41.8,31.0,30.35,SW,236,0.0,2.0,65,0.00,,,0.00,weatherlink.com 1.10,2013-03-29 13:12:00,
2013-03-29 09:27:00,44.8,30.0,30.35,SW,236,1.0,2.0,56,0.00,,,0.00,weatherlink.com 1.10,2013-03-29 13:27:00,
2013-03-29 09:42:00,46.2,30.0,30.34,SW,236,1.0,2.0,54,0.01,,,0.01,weatherlink.com 1.10,2013-03-29 13:42:00,
2013-03-29 09:57:00,47.6,30.0,30.34,SW,236,2.0,3.0,50,0.01,,,0.01,weatherlink.com 1.10,2013-03-29 13:57:00,
2013-03-29 10:12:00,48.4,29.0,30.35,West,270,0.0,4.0,48,0.01,,,0.01,weatherlink.com 1.10,2013-03-29 14:12:00,
2013-03-29 10:27:00,48.8,29.0,30.34,ESE,117,0.0,3.0,46,0.01,,,0.01,weatherlink.com 1.10,2013-03-29 14:27:00,
2013-03-29 10:42:00,49.6,28.0,30.34,WSW,257,1.0,4.0,44,0.00,,,0.01,weatherlink.com 1.10,2013-03-29 14:42:00,
2013-03-29 10:57:00,50.3,30.0,30.34,SE,131,3.0,4.0,45,0.00,,,0.01,weatherlink.com 1.10,2013-03-29 14:57:00,
2013-03-29 11:12:00,51.1,28.0,30.34,West,274,1.0,3.0,41,0.00,,,0.01,weatherlink.com 1.10,2013-03-29 15:12:00,
2013-03-29 11:27:00,52.0,28.0,30.34,SSE,150,0.0,4.0,40,0.00,,,0.01,weatherlink.com 1.10,2013-03-29 15:27:00,
2013-03-29 11:42:00,52.5,28.0,30.34,SSW,211,0.0,6.0,39,0.00,,,0.01,weatherlink.com 1.10,2013-03-29 15:42:00,
2013-03-29 11:57:00,53.8,30.0,30.32,SE,125,1.0,5.0,40,0.00,,,0.01,weatherlink.com 1.10,2013-03-29 15:57:00,
2013-03-29 12:12:00,53.9,29.0,30.32,West,269,3.0,6.0,38,0.00,,,0.01,weatherlink.com 1.10,2013-03-29 16:12:00,
2013-03-29 12:27:00,54.5,29.0,30.32,SW,220,0.0,6.0,38,0.00,,,0.01,weatherlink.com 1.10,2013-03-29 16:27:00,
2013-03-29 12:42:00,55.7,28.0,30.31,ESE,121,5.0,6.0,35,0.00,,,0.01,weatherlink.com 1.10,2013-03-29 16:42:00,
2013-03-29 12:57:00,56.1,29.0,30.30,SSE,158,2.0,7.0,36,0.00,,,0.01,weatherlink.com 1.10,2013-03-29 16:57:00,
2013-03-29 13:12:00,56.7,30.0,30.30,NNW,331,2.0,8.0,36,0.00,,,0.01,weatherlink.com 1.10,2013-03-29 17:12:00,
2013-03-29 13:27:00,56.9,29.0,30.29,West,262,2.0,5.0,34,0.00,,,0.01,weatherlink.com 1.10,2013-03-29 17:27:00,
2013-03-29 13:57:00,58.4,31.0,30.27,SE,144,0.0,6.0,35,0.00,,,0.01,weatherlink.com 1.10,2013-03-29 17:57:00,
2013-03-29 14:13:00,58.0,28.0,30.26,SSE,159,2.0,8.0,32,0.00,,,0.01,weatherlink.com 1.10,2013-03-29 18:13:00,
2013-03-29 14:28:00,59.7,27.0,30.25,East,92,2.0,4.0,29,0.00,,,0.01,weatherlink.com 1.10,2013-03-29 18:28:00,
2013-03-29 14:43:00,59.2,30.0,30.24,WSW,240,4.0,7.0,33,0.00,,,0.01,weatherlink.com 1.10,2013-03-29 18:43:00,
2013-03-29 14:58:00,59.5,29.0,30.24,NE,35,2.0,5.0,32,0.00,,,0.01,weatherlink.com 1.10,2013-03-29 18:58:00,
2013-03-29 15:13:00,60.2,28.0,30.22,WNW,302,2.0,7.0,30,0.00,,,0.01,weatherlink.com 1.10,2013-03-29 19:13:00,
2013-03-29 15:28:00,61.6,30.0,30.22,SW,236,3.0,6.0,30,0.00,,,0.01,weatherlink.com 1.10,2013-03-29 19:28:00,
2013-03-29 15:43:00,61.7,30.0,30.21,NW,315,2.0,7.0,30,0.00,,,0.01,weatherlink.com 1.10,2013-03-29 19:43:00,
2013-03-29 15:58:00,61.8,28.0,30.21,SSW,211,4.0,8.0,28,0.00,,,0.01,weatherlink.com 1.10,2013-03-29 19:58:00,
2013-03-29 16:13:00,61.4,30.0,30.21,South,169,3.0,10.0,30,0.00,,,0.01,weatherlink.com 1.10,2013-03-29 20:13:00,
2013-03-29 16:28:00,61.2,29.0,30.20,SSW,201,3.0,6.0,29,0.00,,,0.01,weatherlink.com 1.10,2013-03-29 20:28:00,
2013-03-29 16:43:00,60.7,28.0,30.20,WSW,237,2.0,6.0,29,0.00,,,0.01,weatherlink.com 1.10,2013-03-29 20:43:00,
2013-03-29 16:58:00,60.7,30.0,30.20,WSW,250,2.0,4.0,32,0.00,,,0.01,weatherlink.com 1.10,2013-03-29 20:58:00,
2013-03-29 17:13:00,61.0,28.0,30.19,South,175,0.0,6.0,29,0.00,,,0.01,weatherlink.com 1.10,2013-03-29 21:13:00,
2013-03-29 17:28:00,60.9,30.0,30.19,WSW,246,1.0,5.0,31,0.00,,,0.01,weatherlink.com 1.10,2013-03-29 21:28:00,
2013-03-29 17:43:00,60.5,28.0,30.19,South,180,1.0,6.0,29,0.00,,,0.01,weatherlink.com 1.10,2013-03-29 21:43:00,
2013-03-29 17:58:00,60.6,28.0,30.19,South,171,0.0,5.0,29,0.00,,,0.01,weatherlink.com 1.10,2013-03-29 21:58:00,
2013-03-29 18:28:00,60.1,31.0,30.19,WNW,292,1.0,4.0,33,0.00,,,0.01,weatherlink.com 1.10,2013-03-29 22:28:00,
2013-03-29 18:43:00,60.2,29.0,30.19,SSW,193,1.0,4.0,31,0.00,,,0.01,weatherlink.com 1.10,2013-03-29 22:43:00,
2013-03-29 18:58:00,59.5,28.0,30.19,SW,223,2.0,7.0,30,0.00,,,0.01,weatherlink.com 1.10,2013-03-29 22:58:00,
2013-03-29 19:13:00,59.2,28.0,30.19,SW,227,2.0,7.0,31,0.00,,,0.01,weatherlink.com 1.10,2013-03-29 23:13:00,
2013-03-29 19:28:00,58.7,29.0,30.20,WNW,300,2.0,6.0,33,0.00,,,0.01,weatherlink.com 1.10,2013-03-29 23:28:00,
2013-03-29 19:43:00,58.3,31.0,30.20,ESE,118,0.0,3.0,35,0.00,,,0.01,weatherlink.com 1.10,2013-03-29 23:43:00,
2013-03-29 19:58:00,57.7,31.0,30.20,SSW,200,0.0,2.0,36,0.00,,,0.01,weatherlink.com 1.10,2013-03-29 23:58:00,
2013-03-29 20:13:00,57.0,31.0,30.20,SSW,200,0.0,1.0,37,0.00,,,0.01,weatherlink.com 1.10,2013-03-30 00:13:00,
2013-03-29 20:28:00,56.2,33.0,30.20,SSW,200,0.0,1.0,41,0.00,,,0.01,weatherlink.com 1.10,2013-03-30 00:28:00,
2013-03-29 20:43:00,55.4,31.0,30.21,SSW,193,0.0,4.0,39,0.00,,,0.01,weatherlink.com 1.10,2013-03-30 00:43:00,
2013-03-29 20:58:00,55.9,31.0,30.21,SW,219,2.0,4.0,39,0.00,,,0.01,weatherlink.com 1.10,2013-03-30 00:58:00,
2013-03-29 21:13:00,56.4,31.0,30.21,SSE,167,1.0,4.0,38,0.00,,,0.01,weatherlink.com 1.10,2013-03-30 01:13:00,
2013-03-29 21:28:00,56.4,32.0,30.21,West,278,2.0,4.0,40,0.00,,,0.01,weatherlink.com 1.10,2013-03-30 01:28:00,
2013-03-29 21:43:00,56.0,33.0,30.21,West,261,0.0,3.0,42,0.00,,,0.01,weatherlink.com 1.10,2013-03-30 01:43:00,
2013-03-29 21:58:00,55.9,33.0,30.22,SW,230,1.0,3.0,42,0.00,,,0.01,weatherlink.com 1.10,2013-03-30 01:58:00,
2013-03-29 22:13:00,55.9,34.0,30.22,WSW,241,1.0,4.0,44,0.00,,,0.01,weatherlink.com 1.10,2013-03-30 02:13:00,
2013-03-29 22:28:00,55.8,34.0,30.23,WSW,252,1.0,3.0,44,0.00,,,0.01,weatherlink.com 1.10,2013-03-30 02:28:00,
2013-03-29 22:43:00,55.5,34.0,30.23,SW,229,1.0,2.0,45,0.00,,,0.01,weatherlink.com 1.10,2013-03-30 02:43:00,
2013-03-29 22:58:00,55.2,35.0,30.22,WNW,296,0.0,4.0,47,0.00,,,0.01,weatherlink.com 1.10,2013-03-30 02:58:00,
2013-03-29 23:13:00,54.9,36.0,30.23,WSW,238,0.0,4.0,49,0.00,,,0.01,weatherlink.com 1.10,2013-03-30 03:13:00,
2013-03-29 23:28:00,54.3,39.0,30.22,WSW,238,0.0,0.0,56,0.00,,,0.01,weatherlink.com 1.10,2013-03-30 03:28:00,
2013-03-29 23:43:00,53.6,40.0,30.22,WSW,238,0.0,1.0,60,0.00,,,0.01,weatherlink.com 1.10,2013-03-30 03:43:00,
2013-03-29 23:58:00,52.6,39.0,30.22,WSW,242,2.0,2.0,60,0.00,,,0.01,weatherlink.com 1.10,2013-03-30 03:58:00,